DateTimeUTC,F1_A11,F1_S11,BsB_S11,BsG_S11,BsR_S11,BbsB_S11,BbsG_S11,BbsR_S11,BaB_A11,BaG_A11,BaR_A11,Tu_S11,T_S11,Uu_S11,U_S11,P_S11,T1_A11
2021-07-28T09:00:00Z,00000200,20000000,,,,,,,-000.43,-000.32,-000.04,19.0,25.4,16.1,10.9,0686.8,31.1
2021-07-28T09:01:00Z,00000200,20000000,,,,,,,-000.48,-000.54,-000.05,19.0,25.4,15.8,10.7,0686.8,31.1
2021-07-28T09:02:00Z,00000200,20000000,,,,,,,0000.08,0000.27,-000.26,19.0,25.4,15.8,10.7,0686.8,31.1
2021-07-28T09:03:00Z,00000200,60000000,,,,,,,0000.95,0000.32,0000.59,19.0,25.4,15.8,10.7,0686.8,31.1
2021-07-28T09:04:00Z,00000200,40000000,0007.41,0005.26,0003.21,0000.46,0000.58,0000.70,0000.62,0000.95,0000.95,19.0,25.2,15.8,10.9,0687.7,31.1
2021-07-28T09:05:00Z,00000200,00000000,0007.76,0005.11,0003.13,0001.34,0000.58,0000.69,0001.32,0001.07,0000.53,19.1,25.2,15.8,10.9,0687.8,31.1
2021-07-28T09:06:00Z,00000200,00000000,0007.95,0005.89,0003.88,0000.72,0000.73,0000.82,0000.80,0000.99,0001.03,19.1,25.2,15.9,10.9,0687.9,31.1
2021-07-28T09:07:00Z,00000200,00000000,0009.17,0005.72,0003.61,0000.49,0000.94,0000.67,0001.51,0001.19,0000.80,19.1,25.2,15.8,10.9,0687.9,31.1
2021-07-28T09:08:00Z,00000200,00000000,0008.59,0005.92,0003.50,0000.89,0001.15,0000.39,0001.30,0001.08,0001.12,19.1,25.2,15.9,10.9,0687.9,31.1
2021-07-28T09:09:00Z,00000200,00000000,0008.39,0006.11,0003.72,0001.22,0000.70,0000.58,0001.13,0000.82,0000.67,19.1,25.2,15.9,10.9,0687.9,31.1
2021-07-28T09:10:00Z,00000200,00000000,0009.01,0006.14,0003.77,0000.97,0000.90,0000.91,0000.66,0001.27,0000.76,19.1,25.2,15.9,10.9,0687.9,31.1
2021-07-28T09:11:00Z,00000200,00000000,0008.58,0006.38,0003.96,0001.50,0000.66,0000.76,0001.63,0001.32,0000.67,19.1,25.2,15.9,11.0,0687.8,31.1
2021-07-28T09:12:00Z,00000200,00000000,0008.39,0006.02,0003.82,0001.02,0000.98,0000.65,0000.86,0001.11,0001.50,19.1,25.2,15.9,11.0,0687.9,31.1
2021-07-28T09:13:00Z,00000200,00000000,0008.75,0006.35,0003.72,0001.07,0001.06,0000.71,0001.33,0001.10,0000.94,19.1,25.2,15.9,11.0,0687.8,31.1
2021-07-28T09:14:00Z,00000200,00000000,0008.69,0005.76,0003.80,0001.00,0000.95,0000.58,0001.38,0000.88,0000.65,19.1,25.2,15.8,11.0,0687.9,31.1
2021-07-28T09:15:00Z,00000200,00000000,0008.74,0005.81,0003.70,0000.76,0000.94,0000.93,0000.85,0001.09,0000.70,19.1,25.2,16.0,11.1,0687.8,31.1
2021-07-28T09:16:00Z,00000200,00000000,0008.91,0005.96,0003.74,0001.23,0001.02,0000.49,0001.07,0000.84,0001.01,19.1,25.2,15.9,11.0,0687.9,31.1
2021-07-28T09:17:00Z,00000200,00000000,0008.47,0005.82,0003.82,0000.90,0000.64,0000.73,0001.00,0001.04,0000.89,19.1,25.2,15.9,11.0,0687.8,31.1
2021-07-28T09:18:00Z,00000200,00000000,0008.34,0005.71,0003.58,0000.44,0000.94,0000.68,0001.07,0001.26,0000.83,19.1,25.2,16.0,11.0,0687.9,31.1
2021-07-28T09:19:00Z,00000200,00000000,0006.86,0005.22,0003.01,0000.93,0001.19,0000.33,0001.20,0000.81,0000.39,19.1,25.2,16.0,11.0,0687.9,31.1
2021-07-28T09:20:00Z,00000200,00000000,0007.99,0005.32,0003.43,0001.00,0000.63,0000.56,0000.82,0001.09,0001.28,19.1,25.2,16.1,11.1,0687.9,31.1
2021-07-28T09:21:00Z,00000200,00000000,0008.02,0005.33,0003.31,0000.71,0000.65,0000.45,0001.14,0000.88,0000.46,19.1,25.2,16.0,11.1,0687.8,31.1
2021-07-28T09:22:00Z,00000200,00000000,0009.39,0005.39,0003.19,0001.09,0000.96,0000.61,0000.95,0000.88,0001.01,19.1,25.2,16.0,11.1,0687.8,31.1
2021-07-28T09:23:00Z,00000200,00000000,0008.19,0005.61,0003.76,0000.68,0000.90,0000.55,0001.09,0000.60,0000.73,19.2,25.2,16.0,11.1,0687.8,31.1
2021-07-28T09:24:00Z,00000200,00000000,0008.51,0005.45,0003.10,0000.62,0000.88,0000.54,0001.05,0001.09,0000.92,19.1,25.2,16.0,11.1,0687.8,31.1
2021-07-28T09:25:00Z,00000200,00000000,0008.27,0005.79,0003.68,0001.07,0000.80,0000.58,0000.51,0001.03,0000.51,19.1,25.2,16.0,11.1,0687.8,31.1
2021-07-28T09:26:00Z,00000200,00000000,0008.24,0005.06,0003.21,0000.52,0000.66,0000.59,0001.36,0000.86,0000.61,19.2,25.2,16.0,11.1,0687.8,31.1
2021-07-28T09:27:00Z,00000200,00000000,0007.23,0004.89,0003.50,0000.37,0001.02,0000.26,0000.70,0000.74,0000.54,19.1,25.2,15.9,11.0,0687.9,31.1
2021-07-28T09:28:00Z,00000200,00000000,0007.36,0005.00,0003.13,0000.39,0000.77,0000.79,0000.68,0000.68,0000.36,19.1,25.2,15.9,11.0,0687.8,31.1
2021-07-28T09:29:00Z,00000200,00000000,0008.00,0004.83,0002.61,0001.14,0000.94,0000.32,0000.47,0000.52,0000.56,19.2,25.2,15.8,11.0,0687.8,31.1
2021-07-28T09:30:00Z,00000200,00000000,0007.68,0005.13,0002.98,0001.09,0000.96,0000.72,0000.85,0000.79,0001.29,19.2,25.2,15.8,10.9,0687.8,31.1
2021-07-28T09:31:00Z,00000200,00000000,0009.07,0006.00,0003.63,0001.36,0000.72,0000.83,0001.21,0000.82,0000.26,19.2,25.2,15.7,10.9,0687.8,31.1
2021-07-28T09:32:00Z,00000200,00000000,0009.53,0006.72,0003.80,0000.91,0000.89,0000.63,0000.84,0001.33,0000.73,19.2,25.2,15.8,11.0,0687.8,31.1
2021-07-28T09:33:00Z,00000200,00000000,0010.66,0006.57,0003.95,0001.83,0000.80,0000.80,0001.25,0000.84,0001.21,19.2,25.2,15.7,10.9,0687.8,31.1
2021-07-28T09:34:00Z,00000200,00000000,0010.39,0006.94,0003.76,0001.06,0000.94,0000.83,0001.33,0001.25,0000.89,19.2,25.2,15.8,11.0,0687.9,31.1
2021-07-28T09:35:00Z,00000200,00000000,0009.58,0006.15,0004.08,0000.64,0000.96,0000.73,0000.94,0001.24,0000.87,19.2,25.2,15.7,10.9,0687.8,31.1
2021-07-28T09:36:00Z,00000200,00000000,0009.27,0006.43,0003.84,0000.57,0000.71,0000.55,0001.13,0000.66,0001.06,19.2,25.2,15.7,10.9,0687.9,31.1
2021-07-28T09:37:00Z,00000200,00000000,0010.09,0006.47,0003.94,0001.47,0000.93,0000.38,0001.19,0001.07,0000.58,19.2,25.2,15.9,11.0,0688.0,31.1
2021-07-28T09:38:00Z,00000200,00000000,0009.42,0006.50,0004.06,0000.42,0001.40,0000.79,0001.36,0001.12,0000.76,19.2,25.2,15.9,11.0,0688.0,31.1
2021-07-28T09:39:00Z,00000200,00000000,0009.86,0006.73,0003.57,0000.88,0000.95,0000.82,0000.60,0001.01,0000.72,19.2,25.2,15.8,11.0,0687.8,31.1
2021-07-28T09:40:00Z,00000200,00000000,0010.15,0006.58,0004.16,0000.79,0000.71,0000.59,0001.10,0000.74,0000.86,19.2,25.2,15.8,11.0,0687.8,31.1
2021-07-28T09:41:00Z,00000200,00000000,0009.65,0006.84,0004.04,0001.54,0001.13,0000.83,0001.31,0001.27,0001.08,19.2,25.2,15.9,11.0,0687.8,31.1
2021-07-28T09:42:00Z,00000200,00000000,0010.44,0007.08,0004.35,0000.94,0001.07,0000.47,0001.09,0000.98,0001.00,19.2,25.2,15.9,11.0,0687.9,31.1
2021-07-28T09:43:00Z,00000200,00000000,0010.33,0006.94,0004.23,0001.64,0001.12,0000.89,0001.47,0001.49,0001.25,19.2,25.2,16.0,11.1,0687.9,31.1
2021-07-28T09:44:00Z,00000200,00000000,0011.11,0007.56,0004.92,0000.61,0001.01,0000.71,0001.12,0001.02,0000.68,19.2,25.2,16.0,11.1,0687.8,31.1
2021-07-28T09:45:00Z,00000200,00000000,0011.49,0007.58,0004.62,0000.87,0001.30,0000.59,0001.34,0001.50,0001.08,19.2,25.2,16.0,11.1,0687.8,31.1
2021-07-28T09:46:00Z,00000200,00000000,0012.34,0008.25,0005.06,0001.51,0001.26,0000.90,0001.69,0001.27,0001.04,19.2,25.2,16.0,11.1,0687.8,31.1
2021-07-28T09:47:00Z,00000200,00000000,0012.43,0008.10,0005.49,0002.08,0001.00,0000.74,0000.88,0000.94,0001.49,19.2,25.2,16.1,11.2,0687.9,31.1
2021-07-28T09:48:00Z,00000200,00000000,0013.78,0008.41,0004.97,0001.84,0001.57,0000.62,0001.45,0001.83,0001.24,19.2,25.2,16.1,11.2,0687.9,31.1
2021-07-28T09:49:00Z,00000200,00000000,0013.10,0008.70,0005.20,0001.50,0001.19,0000.68,0001.50,0000.93,0000.82,19.2,25.2,16.2,11.2,0687.9,31.1
2021-07-28T09:50:00Z,00000200,00000000,0013.15,0008.90,0005.40,0001.94,0001.12,0000.69,0001.46,0001.52,0001.10,19.2,25.2,16.2,11.2,0687.8,31.1
2021-07-28T09:51:00Z,00000200,00000000,0013.07,0009.23,0005.92,0001.81,0000.97,0001.01,0001.14,0001.22,0001.00,19.2,25.2,16.1,11.2,0687.7,31.1
2021-07-28T09:52:00Z,00000200,00000000,0012.40,0009.63,0005.39,0001.09,0001.49,0001.01,0002.10,0001.56,0001.70,19.2,25.2,16.1,11.2,0687.7,31.1
2021-07-28T09:53:00Z,00000200,00000000,0012.62,0010.04,0005.63,0001.41,0001.69,0001.08,0000.74,0001.17,0000.91,19.2,25.2,16.1,11.2,0687.7,31.1
2021-07-28T09:54:00Z,00000200,00000000,0013.89,0008.92,0006.25,0001.42,0001.15,0001.18,0001.76,0001.39,0001.42,19.2,25.2,16.1,11.2,0687.8,31.1
2021-07-28T09:55:00Z,00000200,00000000,0013.44,0009.59,0005.99,0001.76,0001.30,0000.73,0001.44,0001.13,0000.76,19.2,25.2,16.2,11.3,0687.8,31.1
2021-07-28T09:56:00Z,00000200,00000000,0014.47,0009.99,0005.85,0001.62,0001.06,0000.83,0001.44,0001.82,0001.69,19.2,25.2,16.2,11.2,0687.8,31.1
2021-07-28T09:57:00Z,00000200,40000000,,,,,,,0000.49,0000.32,-000.14,19.2,25.3,15.8,10.9,0687.8,31.1
2021-07-28T09:58:00Z,00000200,60000000,,,,,,,-000.70,-000.23,-000.01,19.0,25.3,16.4,11.1,0686.9,31.1
2021-07-28T09:59:00Z,00000200,20000000,,,,,,,0000.56,0000.02,-000.24,19.0,25.4,16.3,11.0,0686.8,31.1
